Change the Weather History Date:

Thursday, April 25, 2013

  Actual Average Record
Temperature  
Mean Temperature 61 °F -  
Max Temperature 80 °F 66 °F 91 °F (1977)
Min Temperature 42 °F 41 °F 33 °F (2002)
Degree Days  
Heating Degree Days 4    
Growing Degree Days 11 (Base 50)    
Moisture  
Dew Point 37 °F    
Average Humidity 43    
Maximum Humidity 73    
Minimum Humidity 24    
Precipitation  
Precipitation 0.00 in - - ()
Sea Level Pressure  
Sea Level Pressure 29.99 in    
Wind  
Wind Speed 7 mph (NW)    
Max Wind Speed 20 mph    
Max Gust Speed 26 mph    
Visibility 10 miles    
Events      
Averages and records for this station are not official NWS values.
T = Trace of Precipitation, MM = Missing Value Source: NWS Daily Summary

Daily Weather History Graph

Daily Weather History Graph

Search for Another Location

Airport or City:

Trip Planner

Search our weather history database for the weather conditions in past years. The results will help you decide how hot, cold, wet, or windy it might be!

Date:

Astronomy

Apr. 25, 2013 Rise Set
Actual Time 6:01 AM PDT 8:04 PM PDT
Civil Twilight 5:29 AM PDT 8:36 PM PDT
Nautical Twilight 4:49 AM PDT 9:16 PM PDT
Astronomical Twilight 4:06 AM PDT 10:00 PM PDT
Moon 8:25 PM PDT (4/25) 5:48 AM PDT (4/25)
Length of Visible Light 15h 07m
Length of Day
14h 03m
Full, 100% of the Moon is Illuminated
Apr 25
Full
Apr 25
Full
May 2
Last Quarter
May 9
New
May 17
First Quarter

Hourly Weather History & Observations

Time (PDT) Temp. Windchill Dew Point Humidity Pressure Visibility Wind Dir Wind Speed Gust Speed Precip Events Conditions
12:53 AM 44.1 °F 41.5 °F 34.0 °F 68% 29.99 in 10.0 mi ESE 4.6 mph - N/A   Clear
1:53 AM 42.1 °F 39.2 °F 33.1 °F 70% 29.99 in 10.0 mi ENE 4.6 mph - N/A   Clear
2:53 AM 42.1 °F 37.7 °F 34.0 °F 73% 29.98 in 10.0 mi ESE 6.9 mph - N/A   Clear
3:53 AM 44.1 °F - 35.1 °F 71% 29.98 in 10.0 mi Calm Calm - N/A   Clear
4:53 AM 46.0 °F - 35.1 °F 66% 29.98 in 10.0 mi Calm Calm - N/A   Clear
5:53 AM 45.0 °F 41.8 °F 36.0 °F 71% 29.98 in 10.0 mi SW 5.8 mph - N/A   Clear
6:53 AM 46.9 °F - 36.0 °F 66% 29.99 in 10.0 mi Calm Calm - N/A   Clear
7:53 AM 52.0 °F - 37.9 °F 59% 30.00 in 10.0 mi Calm Calm - N/A   Clear
8:53 AM 59.0 °F - 37.0 °F 44% 30.00 in 10.0 mi NW 5.8 mph - N/A   Clear
9:53 AM 62.1 °F - 36.0 °F 38% 30.00 in 10.0 mi West 5.8 mph - N/A   Clear
10:53 AM 69.1 °F - 37.0 °F 31% 29.99 in 10.0 mi NW 13.8 mph - N/A   Clear
11:53 AM 73.0 °F - 37.0 °F 27% 29.98 in 10.0 mi NNW 17.3 mph 24.2 mph N/A   Clear
12:53 PM 75.0 °F - 37.9 °F 26% 29.97 in 10.0 mi NNW 15.0 mph 24.2 mph N/A   Clear
1:53 PM 75.9 °F - 37.9 °F 25% 29.97 in 10.0 mi NNW 19.6 mph - N/A   Clear
2:53 PM 79.0 °F - 39.0 °F 24% 29.96 in 10.0 mi NW 16.1 mph 20.7 mph N/A   Clear
3:53 PM 79.0 °F - 39.9 °F 25% 29.95 in 10.0 mi NW 16.1 mph 25.3 mph N/A   Clear
4:53 PM 80.1 °F - 39.9 °F 24% 29.95 in 10.0 mi WNW 17.3 mph 24.2 mph N/A   Clear
5:53 PM 79.0 °F - 39.0 °F 24% 29.96 in 10.0 mi WNW 19.6 mph 26.5 mph N/A   Clear
6:53 PM 75.9 °F - 39.0 °F 26% 29.97 in 10.0 mi WNW 10.4 mph 20.7 mph N/A   Clear
7:53 PM 73.0 °F - 37.9 °F 28% 29.99 in 10.0 mi West 9.2 mph - N/A   Clear
8:53 PM 68.0 °F - 39.0 °F 35% 30.02 in 10.0 mi NNW 9.2 mph - N/A   Clear
9:53 PM 66.9 °F - 39.0 °F 36% 30.04 in 10.0 mi NW 10.4 mph - N/A   Clear
10:53 PM 66.0 °F - 39.9 °F 38% 30.06 in 10.0 mi NW 9.2 mph - N/A   Clear